Hanamaulu, HI

2:25 AM HST on September 27, 2016 (GMT -1000)
Lihue

Weather History for PHLI - November, 2010

Change the Weather History Date:

Monday, November 15, 2010

  Actual Average Record
Temperature  
Mean Temperature 77 °F 76 °F  
Max Temperature 80 °F 81 °F 84 °F (1957)
Min Temperature 74 °F 71 °F 61 °F (1950)
Degree Days  
Heating Degree Days 0 0  
Month to date heating degree days 0 0  
Since 1 July heating degree days 0 0  
Cooling Degree Days 12 11  
Month to date cooling degree days 164 172  
Year to date cooling degree days 3503 3539  
Growing Degree Days 26 (Base 50)    
Moisture  
Dew Point 69 °F    
Average Humidity 81    
Maximum Humidity 93    
Minimum Humidity 69    
Precipitation  
Precipitation 0.00 in 0.15 in 1.16 in (1980)
Month to date precipitation 0.42 2.27  
Year to date precipitation 13.42 29.66  
Snow  
Snow 0.00 in - - ()
Month to date snowfall 0.0  
Since 1 July snowfall 0.0  
Since 1 September snowfall 0.0  
Snow Depth 0.00 in    
Sea Level Pressure  
Sea Level Pressure 30.06 in    
Wind  
Wind Speed 15 mph (East)    
Max Wind Speed 22 mph    
Max Gust Speed 28 mph    
Visibility 10 miles    
Events      
T = Trace of Precipitation, MM = Missing Value Source: NWS Daily Summary

Daily Weather History Graph

Daily Weather History Graph

Search for Another Location

Airport or City:

Trip Planner

Search our weather history database for the weather conditions in past years. The results will help you decide how hot, cold, wet, or windy it might be!

Date:

Astronomy

Nov. 15, 2010 Rise Set
Actual Time 6:49 AM HST 5:54 PM HST
Civil Twilight 6:25 AM HST 6:18 PM HST
Nautical Twilight 5:58 AM HST 6:45 PM HST
Astronomical Twilight 5:32 AM HST 7:11 PM HST
Moon 2:08 PM HST (11/15) 1:43 AM HST (11/15)
Length of Visible Light 11h 52m
Length of Day
11h 05m
Waxing Gibbous, 70% of the Moon is Illuminated
Nov 15
Waxing Gibbous
Nov 21
Full
Nov 28
Last Quarter
Dec 5
New
Dec 13
First Quarter

Hourly Weather History & Observations

Time (HST) Temp. Heat Index Dew Point Humidity Pressure Visibility Wind Dir Wind Speed Gust Speed Precip Events Conditions
12:53 AM 76.8 °F - 71.1 °F 82% 30.07 in 10.0 mi East 13.8 mph - N/A   Mostly Cloudy
1:46 AM 73.4 °F - 69.8 °F 88% 30.06 in 10.0 mi East 10.4 mph - N/A   Scattered Clouds
1:53 AM 73.9 °F - 70.0 °F 87% 30.06 in 10.0 mi East 10.4 mph - N/A   Partly Cloudy
2:18 AM 75.2 °F - 69.8 °F 83% 30.06 in 10.0 mi East 13.8 mph - N/A   Mostly Cloudy
2:35 AM 73.4 °F - 69.8 °F 88% 30.06 in 10.0 mi East 12.7 mph - N/A   Mostly Cloudy
2:44 AM 73.4 °F - 69.8 °F 88% 30.05 in 10.0 mi East 11.5 mph - N/A   Mostly Cloudy
2:53 AM 73.9 °F - 70.0 °F 87% 30.04 in 10.0 mi East 11.5 mph - N/A   Mostly Cloudy
3:53 AM 73.9 °F - 70.0 °F 87% 30.04 in 10.0 mi ESE 9.2 mph - N/A   Partly Cloudy
4:53 AM 73.9 °F - 70.0 °F 87% 30.04 in 10.0 mi East 12.7 mph - N/A   Scattered Clouds
5:00 AM 73.4 °F - 69.8 °F 88% 30.05 in 10.0 mi East 13.8 mph - N/A   Mostly Cloudy
5:53 AM 73.9 °F - 71.1 °F 91% 30.06 in 10.0 mi East 15.0 mph - N/A   Mostly Cloudy
6:15 AM 73.4 °F - 69.8 °F 88% 30.07 in 10.0 mi East 16.1 mph - N/A   Scattered Clouds
6:38 AM 73.4 °F - 69.8 °F 88% 30.08 in 10.0 mi East 17.3 mph - N/A   Mostly Cloudy
6:53 AM 73.9 °F - 70.0 °F 87% 30.07 in 10.0 mi East 16.1 mph - N/A   Scattered Clouds
7:02 AM 73.4 °F - 69.8 °F 88% 30.08 in 10.0 mi East 17.3 mph - N/A   Mostly Cloudy
7:53 AM 75.9 °F - 70.0 °F 82% 30.09 in 10.0 mi East 16.1 mph - N/A   Overcast
8:53 AM 78.1 °F - 70.0 °F 76% 30.10 in 10.0 mi East 16.1 mph - N/A   Overcast
9:53 AM 80.1 °F 82.9 °F 69.1 °F 69% 30.11 in 10.0 mi East 17.3 mph 26.5 mph N/A   Scattered Clouds
10:53 AM 78.1 °F - 70.0 °F 76% 30.11 in 10.0 mi East 19.6 mph - N/A   Mostly Cloudy
11:53 AM 79.0 °F - 69.1 °F 72% 30.09 in 10.0 mi East 17.3 mph - N/A   Scattered Clouds
12:40 PM 78.8 °F - 69.8 °F 74% 30.07 in 10.0 mi East 18.4 mph - N/A   Overcast
12:53 PM 77.0 °F - 68.0 °F 74% 30.05 in 10.0 mi East 17.3 mph - N/A   Overcast
1:53 PM 75.9 °F - 68.0 °F 76% 30.03 in 10.0 mi East 18.4 mph - N/A   Overcast
2:53 PM 75.9 °F - 68.0 °F 76% 30.01 in 10.0 mi East 17.3 mph - N/A   Overcast
3:53 PM 75.0 °F - 66.9 °F 76% 30.01 in 10.0 mi East 17.3 mph 24.2 mph N/A   Mostly Cloudy
4:53 PM 75.0 °F - 66.0 °F 73% 30.03 in 10.0 mi East 16.1 mph - N/A   Overcast
5:02 PM 75.2 °F - 66.2 °F 73% 30.04 in 10.0 mi East 13.8 mph - N/A   Mostly Cloudy
5:53 PM 73.9 °F - 66.9 °F 79% 30.04 in 10.0 mi East 12.7 mph - N/A   Mostly Cloudy
6:53 PM 73.9 °F - 68.0 °F 82% 30.05 in 10.0 mi East 15.0 mph - N/A   Overcast
7:53 PM 73.9 °F - 68.0 °F 82% 30.07 in 10.0 mi East 13.8 mph - N/A   Overcast
8:53 PM 73.9 °F - 69.1 °F 85% 30.08 in 10.0 mi East 12.7 mph - N/A   Mostly Cloudy
9:53 PM 73.9 °F - 69.1 °F 85% 30.07 in 10.0 mi East 17.3 mph - N/A   Partly Cloudy
10:53 PM 73.9 °F - 70.0 °F 87% 30.07 in 10.0 mi East 16.1 mph - N/A   Overcast
11:53 PM 73.9 °F - 68.0 °F 82% 30.06 in 10.0 mi East 17.3 mph - N/A   Mostly Cloudy